FW6176 Weather Reports


Display with metric or nautical units.
time (UTC)temp
F
wind
direction
speed
MPH
gust
MPH
rain 1hr
in
rain 24hr
in
rain mn
in
humidity
%
barometer
mb
20260507194512 69 296 1.0 9.0 0.00 0.00 0.00 31 1015.0
20260507193010 69 281 1.0 4.0 0.00 0.00 0.00 33 1015.1
20260507191507 69 189 1.0 4.0 0.00 0.00 0.00 34 1015.4
20260507190007 69 295 0.0 8.0 0.00 0.00 0.00 33 1015.5
20260507184506 69 112 1.0 10.0 0.00 0.00 0.00 37 1015.6
20260507183004 68 299 4.0 8.0 0.00 0.00 0.00 32 1015.6
20260507181606 67 212 0.0 10.0 0.00 0.00 0.00 35 1015.9
20260507180058 68 346 0.0 3.0 0.00 0.00 0.00 40 1016.1
20260507174609 67 300 3.0 6.0 0.00 0.00 0.00 35 1016.3
20260507173056 67 327 0.0 8.0 0.00 0.00 0.00 35 1016.4
20260507171602 68 276 0.0 4.0 0.00 0.00 0.00 38 1016.5
20260507170052 66 239 0.0 6.0 0.00 0.00 0.00 39 1017.0
20260507164548 66 261 0.0 4.0 0.00 0.00 0.00 37 1017.3
20260507163046 66 42 0.0 4.0 0.00 0.00 0.00 36 1017.3
20260507161545 65 41 0.0 3.0 0.00 0.00 0.00 40 1017.6
20260507160044 65 91 0.0 4.0 0.00 0.00 0.00 36 1017.6
20260507154547 64 243 0.0 4.0 0.00 0.00 0.00 35 1017.9
20260507153048 64 167 1.0 4.0 0.00 0.00 0.00 38 1017.7
20260507151538 63 201 0.0 4.0 0.00 0.00 0.00 40 1017.9
20260507150040 63 115 0.0 3.0 0.00 0.00 0.00 40 1018.1
20260507144535 63 339 0.0 5.0 0.00 0.00 0.00 41 1018.3
20260507143034 62 125 0.0 3.0 0.00 0.00 0.00 43 1018.3
20260507141531 61 176 0.0 4.0 0.00 0.00 0.00 45 1018.4
20260507140029 61 264 0.0 2.0 0.00 0.00 0.00 47 1018.4
20260507134525 60 245 0.0 2.0 0.00 0.00 0.00 48 1018.3
20260507133022 59 136 0.0 4.0 0.00 0.00 0.00 47 1018.2
20260507131526 58 258 0.0 1.0 0.00 0.00 0.00 50 1018.3
20260507130018 56 352 0.0 2.0 0.00 0.00 0.00 53 1018.3
20260507124512 55 89 0.0 1.0 0.00 0.00 0.00 57 1018.2
20260507123007 53 154 0.0 0.0 0.00 0.00 0.00 61 1018.1
20260507121507 51 98 0.0 1.0 0.00 0.00 0.00 69 1018.1
20260507114613 44 337 0.0 0.0 0.00 0.00 0.00 82 1017.8
20260507113055 42 338 0.0 0.0 0.00 0.00 0.00 81 1017.6
20260507111603 42 338 0.0 0.0 0.00 0.00 0.00 80 1017.6
20260507110057 42 337 0.0 0.0 0.00 0.00 0.00 80 1017.5
20260507104552 42 337 0.0 0.0 0.00 0.01 0.00 79 1017.4
20260507103049 43 338 0.0 0.0 0.00 0.01 0.00 78 1017.3
20260507101547 44 337 0.0 0.0 0.00 0.01 0.00 78 1017.4
20260507100048 44 338 0.0 0.0 0.00 0.01 0.00 79 1017.4
20260507094548 44 338 0.0 0.0 0.00 0.02 0.00 79 1017.4
20260507093053 44 336 0.0 0.0 0.00 0.02 0.00 79 1017.3
20260507091550 44 336 0.0 0.0 0.00 0.02 0.00 79 1017.5
20260507090044 43 336 0.0 0.0 0.00 0.02 0.00 78 1017.6
20260507084543 43 336 0.0 0.0 0.00 0.03 0.00 78 1017.7
20260507083041 43 336 0.0 1.0 0.00 0.03 0.00 77 1017.8
20260507081547 44 327 0.0 0.0 0.00 0.03 0.00 76 1017.9
20260507080039 44 323 0.0 0.0 0.00 0.03 0.00 75 1018.0
20260507074554 44 323 0.0 0.0 0.00 0.04 0.00 74 1017.8
20260507073036 44 323 0.0 0.0 0.00 0.04 0.00 74 1017.6
20260507071534 44 323 0.0 0.0 0.00 0.04 0.00 73 1017.5
20260507070032 45 323 0.0 0.0 0.00 0.04 0.00 73 1017.6
20260507064531 45 323 0.0 0.0 0.00 0.06 0.00 74 1017.9
20260507063030 46 323 0.0 0.0 0.00 0.06 0.00 72 1017.8
20260507061530 46 323 0.0 0.0 0.00 0.06 0.00 72 1017.9
20260507060027 46 323 0.0 0.0 0.00 0.06 0.00 72 1018.1
20260507054524 46 323 0.0 0.0 0.00 0.08 0.00 71 1017.8
20260507053023 47 323 0.0 0.0 0.00 0.08 0.00 70 1017.8
20260507051522 47 323 0.0 0.0 0.00 0.08 0.00 69 1017.8
20260507050026 47 323 0.0 0.0 0.00 0.08 0.00 68 1017.8
20260507044517 47 323 0.0 0.0 0.00 0.11 0.08 67 1017.6
20260507043017 48 323 0.0 0.0 0.00 0.11 0.08 66 1017.7
20260507041517 49 323 0.0 0.0 0.00 0.11 0.08 64 1017.6
20260507040017 49 323 0.0 0.0 0.00 0.11 0.08 64 1017.6
20260507034516 50 323 0.0 0.0 0.00 0.11 0.08 61 1017.8
20260507033020 51 323 0.0 0.0 0.00 0.11 0.08 61 1017.8
20260507031514 53 323 0.0 0.0 0.00 0.11 0.08 57 1017.8
20260507030014 54 323 0.0 0.0 0.00 0.11 0.08 53 1017.7
20260507024514 55 323 0.0 2.0 0.00 0.13 0.08 50 1017.7
20260507023013 56 310 0.0 2.0 0.00 0.13 0.08 49 1017.7
20260507021511 56 310 0.0 3.0 0.00 0.13 0.08 48 1017.4
20260507020009 57 309 2.0 5.0 0.00 0.13 0.08 47 1017.3
20260507014509 57 293 1.0 3.0 0.00 0.19 0.08 47 1016.9
20260507013007 57 305 0.0 4.0 0.00 0.19 0.08 47 1016.7
20260507011507 58 304 0.0 5.0 0.00 0.19 0.08 46 1016.4
20260507010009 58 314 0.0 4.0 0.00 0.19 0.08 46 1016.2
20260507004510 59 335 1.0 6.0 0.00 0.26 0.08 45 1016.0
20260507003005 59 295 2.0 6.0 0.00 0.26 0.08 44 1016.2
20260507001505 60 290 1.0 4.0 0.00 0.26 0.08 42 1016.1
20260507000005 60 324 2.0 6.0 0.00 0.26 0.08 43 1016.0
20260506234504 60 338 1.0 5.0 0.00 0.34 0.08 42 1015.9
20260506233004 60 307 0.0 7.0 0.00 0.34 0.08 42 1016.0
20260506231503 60 304 3.0 6.0 0.00 0.34 0.08 42 1016.1
20260506230003 61 295 2.0 10.0 0.00 0.34 0.08 41 1016.0
20260506224503 61 349 2.0 8.0 0.00 0.34 0.08 41 1016.0
20260506223001 61 302 0.0 5.0 0.00 0.34 0.08 43 1016.1
20260506221601 61 266 1.0 7.0 0.00 0.34 0.08 42 1016.1
20260506220100 62 297 4.0 8.0 0.00 0.34 0.08 41 1016.1
20260506214559 62 6 1.0 5.0 0.00 0.36 0.08 40 1016.1
20260506213115 61 335 4.0 8.0 0.00 0.36 0.08 40 1016.2
20260506211558 61 324 3.0 7.0 0.00 0.36 0.08 40 1016.3
20260506210058 61 295 3.0 8.0 0.00 0.36 0.08 42 1016.4
20260506204557 63 302 4.0 6.0 0.00 0.39 0.08 41 1016.4
20260506203055 61 324 2.0 7.0 0.00 0.39 0.08 40 1016.7
20260506201554 62 347 2.0 9.0 0.00 0.39 0.08 39 1017.0
20260506200054 62 314 4.0 10.0 0.00 0.39 0.08 41 1017.1